Regional Weather Roundup
Issued by NWS

Home | Current Version | Previous Version | Text Only | Print | Product List | Glossary Off
Versions: 1 2 3 4 5 6 7 8 9 10 11 12 13 14 15 16 17 18 19 20 21 22 23 24 25 26 27 28 29 30 31 32 33 34 35 36 37 38 39 40 41 42 43 44 45 46 47

000
ASUS45 KCYS 140610
RWRWY

WYOMING REGIONAL WEATHER ROUNDUP
NATIONAL WEATHER SERVICE CHEYENNE WY
1200 AM MDT MON JUL 14 2014

NOTE:  "FAIR" INDICATES FEW OR NO CLOUDS BELOW 12,000 FEET
WITH NO SIGNIFICANT WEATHER AND/OR OBSTRUCTIONS TO VISIBILITY.

WYZ001-140700-
YELLOWSTONE NATIONAL PARK

CITY           SKY/WX    TMP DP  RH WIND       PRES   REMARKS
LK YELLOWSTONE   N/A     50  46  86 CALM      30.50S
6HR MIN TEMP:  50; 6HR MAX TEMP:  72;

W YELLOWSTONE  NOT AVBL

$$
WYZ002>013-054>058-071-098>099-140700-
NORTHERN WYOMING

CITY           SKY/WX    TMP DP  RH WIND       PRES   REMARKS
JACKSON        PTCLDY    59  46  63 N6        30.35S
CODY           PTCLDY    70  45  40 CALM      30.32S
GREYBULL       PTCLDY    72  44  36 W9        30.20R
6HR MIN TEMP:  72; 6HR MAX TEMP:  92;

WORLAND        MOCLDY    73  43  33 E5        30.22R
6HR MIN TEMP:  69; 6HR MAX TEMP:  90;

SHERIDAN       PTCLDY    61  49  64 CALM      30.27R
6HR MIN TEMP:  60; 6HR MAX TEMP:  87;

BUFFALO        PTCLDY    67  45  45 N7        30.33R
6HR MIN TEMP:  64; 6HR MAX TEMP:  82;

GILLETTE       CLEAR     55  48  77 CALM      30.27R
6HR MIN TEMP:  55; 6HR MAX TEMP:  85;

HULETT         FAIR      63  46  55 MISG      30.26
NEWCASTLE      FAIR      63  46  55 N6        30.24

$$
WYZ014>020-022>026-101>103-140700-
CENTRAL WYOMING

CITY           SKY/WX    TMP DP  RH WIND       PRES   REMARKS
BIG PINEY      CLEAR     59  42  53 E3        30.40R
6HR MIN TEMP:  56; 6HR MAX TEMP:  86;

PINEDALE       CLEAR     55  46  71 NW6       30.41R
DUBOIS         FAIR      55  43  62 W6        30.43S
LANDER         CLEAR     69  46  43 W9        30.30R
6HR MIN TEMP:  69; 6HR MAX TEMP:  87;

RIVERTON       CLEAR     70  44  39 E9        30.32R
6HR MIN TEMP:  70; 6HR MAX TEMP:  85;

CASPER         CLEAR     62  38  40 E5        30.31R
6HR MIN TEMP:  62; 6HR MAX TEMP:  89;

DOUGLAS        CLEAR     62  45  53 CALM      30.29R
6HR MIN TEMP:  60; 6HR MAX TEMP:  87;


$$
WYZ021-027>030-104>119-140700-
SOUTHERN WYOMING

CITY           SKY/WX    TMP DP  RH WIND       PRES   REMARKS
EVANSTON       PTCLDY    70  42  36 NE5       30.38R
6HR MIN TEMP:  70; 6HR MAX TEMP:  87;

KEMMERER       CLEAR    N/A N/A N/A N6        30.41S
ROCK SPRINGS   CLEAR     67  41  38 NE10      30.36R
6HR MIN TEMP:  67; 6HR MAX TEMP:  87;

DIXON          FAIR      65  42  42 E10       30.35R
RAWLINS        PTCLDY    68  41  37 NE12      30.38R
6HR MIN TEMP:  68; 6HR MAX TEMP:  83;

SARATOGA       FAIR      59  43  55 S7        30.38S
LARAMIE        CLEAR     59  53  80 N8        30.41R
6HR MIN TEMP:  57; 6HR MAX TEMP:  76;

CHEYENNE       CLEAR     61  54  77 W10       30.32S
6HR MIN TEMP:  61; 6HR MAX TEMP:  78;

TORRINGTON     PTCLDY    68  58  70 NE12      30.19R
6HR MIN TEMP:  68; 6HR MAX TEMP:  85;


$$


USA.gov is the U.S. government's official web portal to all federal, state and local government web resources and services.